Time,TemperatureF,DewpointF,PressureIn,WindDirection,WindDirectionDegrees,WindSpeedMPH,WindSpeedGustMPH,Humidity,HourlyPrecipIn,Conditions,Clouds,dailyrainin,SoftwareType,DateUTC
2013-10-06 00:01:00,47.2,22.3,30.24,NW,315,0.0,0.7,37,0.00,,---,0.00,VWS V14.01,2013-10-06 06:01:00,
2013-10-06 00:06:00,47.3,21.7,30.24,NW,315,0.0,0.0,36,0.00,,---,0.00,VWS V14.01,2013-10-06 06:06:00,
2013-10-06 00:11:00,46.4,22.8,30.24,ESE,112,0.4,1.3,39,0.00,,---,0.00,VWS V14.01,2013-10-06 06:11:00,
2013-10-06 00:16:00,45.7,21.6,30.24,ESE,112,0.0,0.0,38,0.00,,---,0.00,VWS V14.01,2013-10-06 06:16:00,
2013-10-06 00:21:00,45.0,21.5,30.24,ESE,112,0.0,0.0,39,0.00,,---,0.00,VWS V14.01,2013-10-06 06:21:00,
2013-10-06 00:26:00,44.6,21.8,30.24,ESE,112,0.0,0.0,40,0.00,,---,0.00,VWS V14.01,2013-10-06 06:26:00,
2013-10-06 00:31:00,44.6,21.2,30.24,ESE,112,0.0,0.0,39,0.00,,---,0.00,VWS V14.01,2013-10-06 06:31:00,
2013-10-06 00:36:00,44.6,22.9,30.24,SE,135,0.4,1.3,42,0.00,,---,0.00,VWS V14.01,2013-10-06 06:36:00,
2013-10-06 00:41:00,44.3,22.1,30.24,SE,135,0.0,0.0,41,0.00,,---,0.00,VWS V14.01,2013-10-06 06:41:00,
2013-10-06 00:46:00,43.7,22.1,30.24,SE,135,0.7,0.7,42,0.00,,---,0.00,VWS V14.01,2013-10-06 06:46:00,
2013-10-06 00:51:00,43.6,22.6,30.24,ESE,112,1.6,1.6,43,0.00,,---,0.00,VWS V14.01,2013-10-06 06:51:00,
2013-10-06 00:56:00,44.5,22.9,30.24,SE,135,1.1,1.1,42,0.00,,---,0.00,VWS V14.01,2013-10-06 06:56:00,
2013-10-06 01:01:00,44.8,22.0,30.24,East,90,0.4,2.7,40,0.00,,---,0.00,VWS V14.01,2013-10-06 07:01:00,
2013-10-06 01:06:00,44.8,23.1,30.24,SSE,158,0.4,1.1,42,0.00,,---,0.00,VWS V14.01,2013-10-06 07:06:00,
2013-10-06 01:10:00,44.6,22.4,30.24,East,90,0.4,1.1,41,0.00,,---,0.00,VWS V14.01,2013-10-06 07:10:00,
2013-10-06 01:15:00,44.5,21.7,30.24,East,90,0.0,0.0,40,0.00,,---,0.00,VWS V14.01,2013-10-06 07:15:00,
2013-10-06 01:20:00,43.9,21.2,30.24,East,90,0.0,0.0,40,0.00,,---,0.00,VWS V14.01,2013-10-06 07:20:00,
2013-10-06 01:25:00,43.4,22.4,30.24,East,90,0.0,0.0,43,0.00,,---,0.00,VWS V14.01,2013-10-06 07:25:00,
2013-10-06 01:30:00,43.4,22.4,30.24,SE,135,0.0,0.0,43,0.00,,---,0.00,VWS V14.01,2013-10-06 07:30:00,
2013-10-06 01:35:00,42.8,21.9,30.24,SE,135,0.0,0.2,43,0.00,,---,0.00,VWS V14.01,2013-10-06 07:35:00,
2013-10-06 01:40:00,42.8,22.4,30.24,SSW,202,0.0,0.0,44,0.00,,---,0.00,VWS V14.01,2013-10-06 07:40:00,
2013-10-06 01:45:00,42.5,22.7,30.25,SSW,202,0.0,0.0,45,0.00,,---,0.00,VWS V14.01,2013-10-06 07:45:00,
2013-10-06 01:50:00,42.5,23.2,30.25,SSE,158,0.0,1.3,46,0.00,,---,0.00,VWS V14.01,2013-10-06 07:50:00,
2013-10-06 01:55:00,42.1,22.8,30.25,North,0,0.2,0.2,46,0.00,,---,0.00,VWS V14.01,2013-10-06 07:55:00,
2013-10-06 02:00:00,42.7,22.9,30.25,SSE,158,0.0,0.0,45,0.00,,---,0.00,VWS V14.01,2013-10-06 08:00:00,
2013-10-06 02:05:00,42.7,23.4,30.25,South,180,0.0,0.0,46,0.00,,---,0.00,VWS V14.01,2013-10-06 08:05:00,
2013-10-06 02:10:00,41.9,23.7,30.25,SE,135,0.4,0.4,48,0.00,,---,0.00,VWS V14.01,2013-10-06 08:10:00,
2013-10-06 02:15:00,41.4,23.2,30.25,SE,135,0.0,0.0,48,0.00,,---,0.00,VWS V14.01,2013-10-06 08:15:00,
2013-10-06 02:20:00,41.0,22.8,30.25,SE,135,0.0,0.0,48,0.00,,---,0.00,VWS V14.01,2013-10-06 08:20:00,
2013-10-06 02:25:00,40.7,23.0,30.25,SE,135,0.0,0.0,49,0.00,,---,0.00,VWS V14.01,2013-10-06 08:25:00,
2013-10-06 02:30:00,40.5,23.8,30.25,SE,135,0.0,0.4,51,0.00,,---,0.00,VWS V14.01,2013-10-06 08:30:00,
2013-10-06 02:35:00,40.3,23.6,30.25,SE,135,0.2,0.7,51,0.00,,---,0.00,VWS V14.01,2013-10-06 08:35:00,
2013-10-06 02:40:00,40.1,23.4,30.25,SE,135,0.4,0.4,51,0.00,,---,0.00,VWS V14.01,2013-10-06 08:40:00,
2013-10-06 02:45:00,40.0,22.9,30.25,SE,135,0.0,0.0,50,0.00,,---,0.00,VWS V14.01,2013-10-06 08:45:00,
2013-10-06 02:50:00,39.8,24.1,30.25,ESE,112,0.0,0.0,53,0.00,,---,0.00,VWS V14.01,2013-10-06 08:50:00,
2013-10-06 02:55:00,39.6,24.3,30.25,ESE,112,0.0,0.2,54,0.00,,---,0.00,VWS V14.01,2013-10-06 08:55:00,
2013-10-06 03:00:00,40.1,23.0,30.25,NE,45,1.1,1.1,50,0.00,,---,0.00,VWS V14.01,2013-10-06 09:00:00,
2013-10-06 03:05:00,41.0,22.8,30.25,ENE,68,0.4,0.9,48,0.00,,---,0.00,VWS V14.01,2013-10-06 09:05:00,
2013-10-06 03:09:00,41.6,22.4,30.25,NE,45,1.1,1.1,46,0.00,,---,0.00,VWS V14.01,2013-10-06 09:09:00,
2013-10-06 03:14:00,42.1,22.8,30.25,ENE,68,0.2,0.2,46,0.00,,---,0.00,VWS V14.01,2013-10-06 09:14:00,
2013-10-06 03:19:00,42.1,22.8,30.25,ESE,112,0.9,0.9,46,0.00,,---,0.00,VWS V14.01,2013-10-06 09:19:00,
2013-10-06 03:24:00,42.3,22.5,30.25,East,90,1.1,1.1,45,0.00,,---,0.00,VWS V14.01,2013-10-06 09:24:00,
2013-10-06 03:29:00,42.7,22.3,30.25,ENE,68,1.1,1.1,44,0.00,,---,0.00,VWS V14.01,2013-10-06 09:29:00,
2013-10-06 03:34:00,43.0,22.0,30.25,East,90,1.3,1.3,43,0.00,,---,0.00,VWS V14.01,2013-10-06 09:34:00,
2013-10-06 03:39:00,43.0,22.0,30.25,ESE,112,1.8,1.8,43,0.00,,---,0.00,VWS V14.01,2013-10-06 09:39:00,
2013-10-06 03:44:00,43.0,22.0,30.25,East,90,1.6,1.6,43,0.00,,---,0.00,VWS V14.01,2013-10-06 09:44:00,
2013-10-06 03:49:00,42.8,21.9,30.25,ESE,112,1.1,1.6,43,0.00,,---,0.00,VWS V14.01,2013-10-06 09:49:00,
2013-10-06 03:54:00,42.8,21.9,30.25,East,90,0.4,0.7,43,0.00,,---,0.00,VWS V14.01,2013-10-06 09:54:00,
2013-10-06 03:59:00,42.7,21.8,30.25,NE,45,0.4,0.4,43,0.00,,---,0.00,VWS V14.01,2013-10-06 09:59:00,
2013-10-06 04:04:00,42.3,21.4,30.25,ENE,68,0.2,0.4,43,0.00,,---,0.00,VWS V14.01,2013-10-06 10:04:00,
2013-10-06 04:09:00,42.5,21.6,30.25,NE,45,1.3,1.3,43,0.00,,---,0.00,VWS V14.01,2013-10-06 10:09:00,
2013-10-06 04:14:00,42.7,21.2,30.25,NNE,22,1.6,1.6,42,0.00,,---,0.00,VWS V14.01,2013-10-06 10:14:00,
2013-10-06 04:19:00,42.8,21.3,30.25,ENE,68,1.3,1.3,42,0.00,,---,0.00,VWS V14.01,2013-10-06 10:19:00,
2013-10-06 04:24:00,43.0,21.5,30.25,ENE,68,1.6,2.0,42,0.00,,---,0.00,VWS V14.01,2013-10-06 10:24:00,
2013-10-06 04:29:00,43.4,21.9,30.25,East,90,3.6,3.6,42,0.00,,---,0.00,VWS V14.01,2013-10-06 10:29:00,
2013-10-06 04:34:00,43.4,21.9,30.25,SE,135,1.8,1.8,42,0.00,,---,0.00,VWS V14.01,2013-10-06 10:34:00,
2013-10-06 04:39:00,43.2,21.7,30.25,East,90,0.9,0.9,42,0.00,,---,0.00,VWS V14.01,2013-10-06 10:39:00,
2013-10-06 04:44:00,42.8,21.9,30.25,ESE,112,0.7,1.1,43,0.00,,---,0.00,VWS V14.01,2013-10-06 10:44:00,
2013-10-06 04:49:00,42.5,21.6,30.25,ESE,112,0.0,0.0,43,0.00,,---,0.00,VWS V14.01,2013-10-06 10:49:00,
2013-10-06 04:54:00,42.1,20.7,30.25,ESE,112,0.0,0.0,42,0.00,,---,0.00,VWS V14.01,2013-10-06 10:54:00,
2013-10-06 04:59:00,41.4,21.1,30.25,ESE,112,0.0,0.0,44,0.00,,---,0.00,VWS V14.01,2013-10-06 10:59:00,
2013-10-06 05:03:00,41.4,21.7,30.25,ESE,112,0.4,1.1,45,0.00,,---,0.00,VWS V14.01,2013-10-06 11:03:00,
2013-10-06 05:08:00,41.4,21.7,30.25,East,90,1.1,1.8,45,0.00,,---,0.00,VWS V14.01,2013-10-06 11:08:00,
2013-10-06 05:13:00,41.4,21.7,30.25,ESE,112,0.7,0.7,45,0.00,,---,0.00,VWS V14.01,2013-10-06 11:13:00,
2013-10-06 05:18:00,41.2,21.0,30.25,ESE,112,0.0,0.0,44,0.00,,---,0.00,VWS V14.01,2013-10-06 11:18:00,
2013-10-06 05:23:00,40.9,21.2,30.25,ESE,112,0.0,0.7,45,0.00,,---,0.00,VWS V14.01,2013-10-06 11:23:00,
2013-10-06 05:28:00,40.9,21.2,30.25,ESE,112,0.0,0.0,45,0.00,,---,0.00,VWS V14.01,2013-10-06 11:28:00,
2013-10-06 05:33:00,40.7,21.0,30.25,East,90,0.0,0.2,45,0.00,,---,0.00,VWS V14.01,2013-10-06 11:33:00,
2013-10-06 05:38:00,40.3,21.2,30.25,East,90,0.0,0.0,46,0.00,,---,0.00,VWS V14.01,2013-10-06 11:38:00,
2013-10-06 05:43:00,40.0,20.9,30.25,East,90,0.0,0.0,46,0.00,,---,0.00,VWS V14.01,2013-10-06 11:43:00,
2013-10-06 05:48:00,39.6,21.0,30.25,East,90,0.0,0.0,47,0.00,,---,0.00,VWS V14.01,2013-10-06 11:48:00,
2013-10-06 05:53:00,39.6,21.0,30.26,East,90,0.0,0.0,47,0.00,,---,0.00,VWS V14.01,2013-10-06 11:53:00,
2013-10-06 05:58:00,39.6,21.0,30.26,East,90,0.0,0.0,47,0.00,,---,0.00,VWS V14.01,2013-10-06 11:58:00,
2013-10-06 06:03:00,39.1,20.6,30.26,East,90,0.0,0.0,47,0.00,,---,0.00,VWS V14.01,2013-10-06 12:03:00,
2013-10-06 06:08:00,38.7,21.2,30.26,East,90,0.2,0.4,49,0.00,,---,0.00,VWS V14.01,2013-10-06 12:08:00,
2013-10-06 06:13:00,39.1,21.6,30.26,ESE,112,0.0,0.4,49,0.00,,---,0.00,VWS V14.01,2013-10-06 12:13:00,
2013-10-06 06:18:00,39.2,21.2,30.27,ESE,112,0.0,0.0,48,0.00,,---,0.00,VWS V14.01,2013-10-06 12:18:00,
2013-10-06 06:23:00,39.1,21.6,30.26,ESE,112,0.0,0.2,49,0.00,,---,0.00,VWS V14.01,2013-10-06 12:23:00,
2013-10-06 06:28:00,39.2,21.7,30.26,SE,135,1.1,1.1,49,0.00,,---,0.00,VWS V14.01,2013-10-06 12:28:00,
2013-10-06 06:33:00,40.1,22.0,30.26,SE,135,1.3,2.5,48,0.00,,---,0.00,VWS V14.01,2013-10-06 12:33:00,
2013-10-06 06:38:00,40.5,22.4,30.26,ESE,112,0.4,2.0,48,0.00,,---,0.00,VWS V14.01,2013-10-06 12:38:00,
2013-10-06 06:43:00,40.7,22.1,30.26,ESE,112,0.0,0.2,47,0.00,,---,0.00,VWS V14.01,2013-10-06 12:43:00,
2013-10-06 06:48:00,40.3,21.7,30.27,SE,135,1.1,1.1,47,0.00,,---,0.00,VWS V14.01,2013-10-06 12:48:00,
2013-10-06 06:53:00,40.0,22.4,30.26,SE,135,0.0,0.0,49,0.00,,---,0.00,VWS V14.01,2013-10-06 12:53:00,
2013-10-06 06:58:00,39.4,22.3,30.26,SW,225,0.0,0.0,50,0.00,,---,0.00,VWS V14.01,2013-10-06 12:58:00,
2013-10-06 07:03:00,39.1,22.0,30.26,SW,225,0.0,0.2,50,0.00,,---,0.00,VWS V14.01,2013-10-06 13:03:00,
2013-10-06 07:08:00,38.9,21.9,30.26,SW,225,0.0,0.0,50,0.00,,---,0.00,VWS V14.01,2013-10-06 13:08:00,
2013-10-06 07:13:00,38.3,20.8,30.27,SW,225,0.0,0.0,49,0.00,,---,0.00,VWS V14.01,2013-10-06 13:13:00,
2013-10-06 07:18:00,38.2,21.2,30.27,SW,225,0.0,0.0,50,0.00,,---,0.00,VWS V14.01,2013-10-06 13:18:00,
2013-10-06 07:23:00,38.0,21.0,30.27,SW,225,0.0,0.0,50,0.00,,---,0.00,VWS V14.01,2013-10-06 13:23:00,
2013-10-06 07:28:00,37.8,22.2,30.27,SW,225,0.0,0.0,53,0.00,,---,0.00,VWS V14.01,2013-10-06 13:28:00,
2013-10-06 07:33:00,37.6,21.6,30.27,SW,225,0.0,0.0,52,0.00,,---,0.00,VWS V14.01,2013-10-06 13:33:00,
2013-10-06 07:38:00,38.0,22.4,30.27,SW,225,0.0,0.0,53,0.00,,---,0.00,VWS V14.01,2013-10-06 13:38:00,
2013-10-06 07:43:00,38.2,22.6,30.28,SW,225,0.0,0.0,53,0.00,,---,0.00,VWS V14.01,2013-10-06 13:43:00,
2013-10-06 07:48:00,38.5,22.4,30.28,SW,225,0.0,0.0,52,0.00,,---,0.00,VWS V14.01,2013-10-06 13:48:00,
2013-10-06 07:53:00,39.1,23.9,30.28,SW,225,0.0,0.0,54,0.00,,---,0.00,VWS V14.01,2013-10-06 13:53:00,
2013-10-06 07:58:00,40.1,23.9,30.28,SW,225,0.0,0.0,52,0.00,,---,0.00,VWS V14.01,2013-10-06 13:58:00,
2013-10-06 08:03:00,41.0,23.3,30.28,NW,315,0.0,0.4,49,0.00,,---,0.00,VWS V14.01,2013-10-06 14:03:00,
2013-10-06 08:08:00,41.4,23.2,30.28,NW,315,0.0,0.0,48,0.00,,---,0.00,VWS V14.01,2013-10-06 14:08:00,
2013-10-06 08:13:00,41.9,23.7,30.29,NE,45,0.0,0.0,48,0.00,,---,0.00,VWS V14.01,2013-10-06 14:13:00,
2013-10-06 08:18:00,42.5,23.2,30.29,ESE,112,1.1,1.1,46,0.00,,---,0.00,VWS V14.01,2013-10-06 14:18:00,
2013-10-06 08:23:00,44.3,23.8,30.29,ESE,112,0.4,0.4,44,0.00,,---,0.00,VWS V14.01,2013-10-06 14:23:00,
2013-10-06 08:28:00,45.4,23.7,30.29,ENE,68,0.9,0.9,42,0.00,,---,0.00,VWS V14.01,2013-10-06 14:28:00,
2013-10-06 08:33:00,46.4,24.0,30.29,ESE,112,0.2,0.4,41,0.00,,---,0.00,VWS V14.01,2013-10-06 14:33:00,
2013-10-06 08:38:00,47.5,23.2,30.30,SE,135,0.7,0.9,38,0.00,,---,0.00,VWS V14.01,2013-10-06 14:38:00,
2013-10-06 08:43:00,48.8,24.3,30.29,SE,135,0.4,0.7,38,0.00,,---,0.00,VWS V14.01,2013-10-06 14:43:00,
2013-10-06 08:48:00,49.3,24.1,30.30,ESE,112,0.9,1.3,37,0.00,,---,0.00,VWS V14.01,2013-10-06 14:48:00,
2013-10-06 08:53:00,49.0,24.5,30.30,South,180,0.2,0.2,38,0.00,,---,0.00,VWS V14.01,2013-10-06 14:53:00,
2013-10-06 08:58:00,49.7,25.1,30.30,ENE,68,0.4,0.4,38,0.00,,---,0.00,VWS V14.01,2013-10-06 14:58:00,
2013-10-06 09:03:00,50.4,24.5,30.30,SW,225,0.4,0.4,36,0.00,,---,0.00,VWS V14.01,2013-10-06 15:03:00,
2013-10-06 09:08:00,50.9,24.2,30.30,SE,135,1.1,2.0,35,0.00,,---,0.00,VWS V14.01,2013-10-06 15:08:00,
2013-10-06 09:13:00,51.5,25.5,30.30,ESE,112,0.2,0.2,36,0.00,,---,0.00,VWS V14.01,2013-10-06 15:13:00,
2013-10-06 09:18:00,53.1,25.5,30.30,SW,225,0.2,0.2,34,0.00,,---,0.00,VWS V14.01,2013-10-06 15:18:00,
2013-10-06 09:23:00,53.6,25.9,30.30,NE,45,1.1,1.1,34,0.00,,---,0.00,VWS V14.01,2013-10-06 15:23:00,
2013-10-06 09:28:00,54.4,25.9,30.30,NNE,22,0.0,0.0,33,0.00,,---,0.00,VWS V14.01,2013-10-06 15:28:00,
2013-10-06 09:33:00,54.4,24.4,30.30,SSE,158,0.2,1.8,31,0.00,,---,0.00,VWS V14.01,2013-10-06 15:33:00,
2013-10-06 09:38:00,54.0,24.1,30.30,SE,135,1.8,1.8,31,0.00,,---,0.00,VWS V14.01,2013-10-06 15:38:00,
2013-10-06 09:43:00,52.9,23.9,30.30,ENE,68,1.1,3.4,32,0.00,,---,0.00,VWS V14.01,2013-10-06 15:43:00,
2013-10-06 09:48:00,53.6,23.7,30.30,NE,45,3.4,3.4,31,0.00,,---,0.00,VWS V14.01,2013-10-06 15:48:00,
2013-10-06 09:53:00,53.8,23.9,30.30,North,0,1.3,3.1,31,0.00,,---,0.00,VWS V14.01,2013-10-06 15:53:00,
2013-10-06 09:58:00,54.2,24.2,30.30,NE,45,4.7,4.7,31,0.00,,---,0.00,VWS V14.01,2013-10-06 15:58:00,
2013-10-06 10:03:00,54.4,23.6,30.31,ENE,68,5.1,5.1,30,0.00,,---,0.00,VWS V14.01,2013-10-06 16:03:00,
2013-10-06 10:08:00,54.0,23.3,30.30,NE,45,1.8,1.8,30,0.00,,---,0.00,VWS V14.01,2013-10-06 16:08:00,
2013-10-06 10:13:00,54.7,23.9,30.30,NNW,338,1.3,1.3,30,0.00,,---,0.00,VWS V14.01,2013-10-06 16:13:00,
2013-10-06 10:18:00,55.4,23.7,30.30,NNW,338,3.6,6.3,29,0.00,,---,0.00,VWS V14.01,2013-10-06 16:18:00,
2013-10-06 10:23:00,55.1,23.4,30.30,NNE,22,1.8,1.8,29,0.00,,---,0.00,VWS V14.01,2013-10-06 16:23:00,
2013-10-06 10:28:00,55.6,24.7,30.30,NE,45,0.9,0.9,30,0.00,,---,0.00,VWS V14.01,2013-10-06 16:28:00,
2013-10-06 10:33:00,55.8,24.0,30.30,North,0,4.0,4.0,29,0.00,,---,0.00,VWS V14.01,2013-10-06 16:33:00,
2013-10-06 10:38:00,55.1,23.4,30.30,North,0,4.5,5.4,29,0.00,,---,0.00,VWS V14.01,2013-10-06 16:38:00,
2013-10-06 10:43:00,54.2,22.6,30.30,North,0,1.1,1.1,29,0.00,,---,0.00,VWS V14.01,2013-10-06 16:43:00,
2013-10-06 10:48:00,54.4,24.4,30.30,NE,45,2.9,2.9,31,0.00,,---,0.00,VWS V14.01,2013-10-06 16:48:00,
2013-10-06 10:53:00,54.7,23.9,30.30,NE,45,3.6,4.9,30,0.00,,---,0.00,VWS V14.01,2013-10-06 16:53:00,
2013-10-06 10:58:00,54.4,24.4,30.30,NW,315,0.0,0.0,31,0.00,,---,0.00,VWS V14.01,2013-10-06 16:58:00,
2013-10-06 11:03:00,54.7,24.7,30.30,NNE,22,1.8,1.8,31,0.00,,---,0.00,VWS V14.01,2013-10-06 17:03:00,
2013-10-06 11:08:00,54.9,23.3,30.30,NE,45,2.5,2.5,29,0.00,,---,0.00,VWS V14.01,2013-10-06 17:08:00,
2013-10-06 11:13:00,55.1,24.2,30.29,NE,45,1.1,1.1,30,0.00,,---,0.00,VWS V14.01,2013-10-06 17:13:00,
2013-10-06 11:18:00,55.6,23.9,30.29,North,0,0.4,0.4,29,0.00,,---,0.00,VWS V14.01,2013-10-06 17:18:00,
2013-10-06 11:23:00,55.6,23.9,30.29,ENE,68,2.5,2.5,29,0.00,,---,0.00,VWS V14.01,2013-10-06 17:23:00,
2013-10-06 11:28:00,55.4,22.9,30.29,NNE,22,2.0,2.0,28,0.00,,---,0.00,VWS V14.01,2013-10-06 17:28:00,
2013-10-06 11:33:00,55.8,24.0,30.29,SE,135,2.0,2.0,29,0.00,,---,0.00,VWS V14.01,2013-10-06 17:33:00,
2013-10-06 11:38:00,56.3,23.6,30.29,East,90,0.9,0.9,28,0.00,,---,0.00,VWS V14.01,2013-10-06 17:38:00,
2013-10-06 11:43:00,57.1,24.3,30.29,West,270,3.1,3.1,28,0.00,,---,0.00,VWS V14.01,2013-10-06 17:43:00,
2013-10-06 11:48:00,57.2,23.5,30.29,NW,315,3.4,3.4,27,0.00,,---,0.00,VWS V14.01,2013-10-06 17:48:00,
2013-10-06 11:53:00,57.2,24.4,30.29,NNW,338,2.9,2.9,28,0.00,,---,0.00,VWS V14.01,2013-10-06 17:53:00,
2013-10-06 11:58:00,57.6,23.9,30.29,WSW,248,0.4,0.4,27,0.00,,---,0.00,VWS V14.01,2013-10-06 17:58:00,
2013-10-06 12:03:00,58.3,24.5,30.29,ENE,68,1.8,1.8,27,0.00,,---,0.00,VWS V14.01,2013-10-06 18:03:00,
2013-10-06 12:08:00,58.9,23.2,30.29,NW,315,2.0,3.1,25,0.00,,---,0.00,VWS V14.01,2013-10-06 18:08:00,
2013-10-06 12:13:00,58.3,24.5,30.28,WNW,292,0.9,2.2,27,0.00,,---,0.00,VWS V14.01,2013-10-06 18:13:00,
2013-10-06 12:18:00,58.5,24.7,30.28,NNE,22,2.2,4.7,27,0.00,,---,0.00,VWS V14.01,2013-10-06 18:18:00,
2013-10-06 12:23:00,58.7,23.9,30.28,North,0,1.1,1.8,26,0.00,,---,0.00,VWS V14.01,2013-10-06 18:23:00,
2013-10-06 12:28:00,58.7,24.8,30.28,NNW,338,1.1,1.1,27,0.00,,---,0.00,VWS V14.01,2013-10-06 18:28:00,
2013-10-06 12:33:00,58.7,24.8,30.28,West,270,0.9,0.9,27,0.00,,---,0.00,VWS V14.01,2013-10-06 18:33:00,
2013-10-06 12:38:00,59.6,25.6,30.27,WNW,292,1.6,2.9,27,0.00,,---,0.00,VWS V14.01,2013-10-06 18:38:00,
2013-10-06 12:43:00,59.8,23.9,30.27,North,0,1.6,2.0,25,0.00,,---,0.00,VWS V14.01,2013-10-06 18:43:00,
2013-10-06 12:48:00,59.9,25.9,30.27,NW,315,0.0,0.9,27,0.00,,---,0.00,VWS V14.01,2013-10-06 18:48:00,
2013-10-06 12:53:00,60.5,24.5,30.27,SSE,158,1.6,1.6,25,0.00,,---,0.00,VWS V14.01,2013-10-06 18:53:00,
2013-10-06 12:58:00,60.5,24.5,30.27,NW,315,1.8,1.8,25,0.00,,---,0.00,VWS V14.01,2013-10-06 18:58:00,
2013-10-06 13:02:00,60.7,24.7,30.27,NNW,338,3.6,4.9,25,0.00,,---,0.00,VWS V14.01,2013-10-06 19:02:00,
2013-10-06 13:07:00,60.7,24.7,30.26,NNE,22,5.8,5.8,25,0.00,,---,0.00,VWS V14.01,2013-10-06 19:07:00,
2013-10-06 13:12:00,60.5,24.5,30.26,NNW,338,2.5,2.5,25,0.00,,---,0.00,VWS V14.01,2013-10-06 19:12:00,
2013-10-06 13:17:00,60.3,24.4,30.26,WSW,248,1.1,3.4,25,0.00,,---,0.00,VWS V14.01,2013-10-06 19:17:00,
2013-10-06 13:22:00,60.8,24.8,30.25,NNW,338,1.8,1.8,25,0.00,,---,0.00,VWS V14.01,2013-10-06 19:22:00,
2013-10-06 13:27:00,61.7,24.6,30.25,NNW,338,1.8,1.8,24,0.00,,---,0.00,VWS V14.01,2013-10-06 19:27:00,
2013-10-06 13:32:00,61.6,24.5,30.25,West,270,2.5,2.5,24,0.00,,---,0.00,VWS V14.01,2013-10-06 19:32:00,
2013-10-06 13:37:00,61.7,24.6,30.25,North,0,1.8,1.8,24,0.00,,---,0.00,VWS V14.01,2013-10-06 19:37:00,
2013-10-06 13:42:00,62.1,24.9,30.24,NE,45,2.5,4.3,24,0.00,,---,0.00,VWS V14.01,2013-10-06 19:42:00,
2013-10-06 13:47:00,61.7,23.5,30.24,NE,45,3.4,3.4,23,0.00,,---,0.00,VWS V14.01,2013-10-06 19:47:00,
2013-10-06 13:52:00,61.6,23.5,30.24,NE,45,2.5,4.0,23,0.00,,---,0.00,VWS V14.01,2013-10-06 19:52:00,
2013-10-06 13:57:00,61.7,23.5,30.23,North,0,4.0,4.0,23,0.00,,---,0.00,VWS V14.01,2013-10-06 19:57:00,
2013-10-06 14:03:00,62.5,24.2,30.23,NW,315,0.2,2.0,23,0.00,,---,0.00,VWS V14.01,2013-10-06 20:03:00,
2013-10-06 14:08:00,62.6,24.3,30.23,NW,315,2.0,4.3,23,0.00,,---,0.00,VWS V14.01,2013-10-06 20:08:00,
2013-10-06 14:13:00,63.0,23.6,30.23,West,270,3.1,3.1,22,0.00,,---,0.00,VWS V14.01,2013-10-06 20:13:00,
2013-10-06 14:18:00,63.0,23.6,30.23,West,270,0.4,1.1,22,0.00,,---,0.00,VWS V14.01,2013-10-06 20:18:00,
2013-10-06 14:23:00,63.7,24.2,30.23,NW,315,0.4,1.1,22,0.00,,---,0.00,VWS V14.01,2013-10-06 20:23:00,
2013-10-06 14:28:00,64.1,24.5,30.23,SSE,158,1.3,2.2,22,0.00,,---,0.00,VWS V14.01,2013-10-06 20:28:00,
2013-10-06 14:32:00,64.4,23.6,30.22,West,270,2.7,3.1,21,0.00,,---,0.00,VWS V14.01,2013-10-06 20:32:00,
2013-10-06 14:37:00,65.5,24.6,30.22,WSW,248,0.9,0.9,21,0.00,,---,0.00,VWS V14.01,2013-10-06 20:37:00,
2013-10-06 14:42:00,66.6,23.1,30.22,West,270,3.4,3.4,19,0.00,,---,0.00,VWS V14.01,2013-10-06 20:42:00,
2013-10-06 14:47:00,67.7,22.7,30.22,NNW,338,2.2,3.4,18,0.00,,---,0.00,VWS V14.01,2013-10-06 20:47:00,
2013-10-06 14:52:00,66.6,21.8,30.22,West,270,1.8,2.2,18,0.00,,---,0.00,VWS V14.01,2013-10-06 20:52:00,
2013-10-06 14:57:00,65.9,22.5,30.21,SW,225,0.9,0.9,19,0.00,,---,0.00,VWS V14.01,2013-10-06 20:57:00,
2013-10-06 15:02:00,66.2,25.1,30.22,West,270,0.9,2.2,21,0.00,,---,0.00,VWS V14.01,2013-10-06 21:02:00,
2013-10-06 15:07:00,66.2,22.8,30.22,ENE,68,2.9,3.4,19,0.00,,---,0.00,VWS V14.01,2013-10-06 21:07:00,
2013-10-06 15:12:00,66.1,25.1,30.21,NNW,338,2.9,2.9,21,0.00,,---,0.00,VWS V14.01,2013-10-06 21:12:00,
2013-10-06 15:17:00,66.2,24.0,30.21,NW,315,1.1,1.8,20,0.00,,---,0.00,VWS V14.01,2013-10-06 21:17:00,
2013-10-06 15:22:00,66.6,24.3,30.21,West,270,1.3,1.6,20,0.00,,---,0.00,VWS V14.01,2013-10-06 21:22:00,
2013-10-06 15:27:00,67.3,22.4,30.21,WNW,292,2.5,4.3,18,0.00,,---,0.00,VWS V14.01,2013-10-06 21:27:00,
2013-10-06 15:32:00,67.3,23.7,30.21,West,270,1.8,3.4,19,0.00,,---,0.00,VWS V14.01,2013-10-06 21:32:00,
2013-10-06 15:37:00,67.3,22.4,30.21,NNE,22,2.2,3.1,18,0.00,,---,0.00,VWS V14.01,2013-10-06 21:37:00,
2013-10-06 15:42:00,67.7,22.7,30.21,ENE,68,3.1,3.4,18,0.00,,---,0.00,VWS V14.01,2013-10-06 21:42:00,
2013-10-06 15:47:00,67.3,21.0,30.21,ENE,68,2.5,3.4,17,0.00,,---,0.00,VWS V14.01,2013-10-06 21:47:00,
2013-10-06 15:52:00,67.3,22.4,30.21,NW,315,1.1,1.6,18,0.00,,---,0.00,VWS V14.01,2013-10-06 21:52:00,
2013-10-06 15:57:00,67.9,22.9,30.21,NW,315,1.1,3.1,18,0.00,,---,0.00,VWS V14.01,2013-10-06 21:57:00,
2013-10-06 16:02:00,68.0,21.6,30.21,West,270,3.4,3.4,17,0.00,,---,0.00,VWS V14.01,2013-10-06 22:02:00,
2013-10-06 16:07:00,68.0,23.0,30.21,WNW,292,1.8,4.0,18,0.00,,---,0.00,VWS V14.01,2013-10-06 22:07:00,
2013-10-06 16:12:00,68.8,22.2,30.20,NNE,22,1.6,2.0,17,0.00,,---,0.00,VWS V14.01,2013-10-06 22:12:00,
2013-10-06 16:17:00,69.3,22.6,30.20,NNE,22,0.0,0.2,17,0.00,,---,0.00,VWS V14.01,2013-10-06 22:17:00,
2013-10-06 16:22:00,69.7,21.5,30.20,NE,45,2.7,2.7,16,0.00,,---,0.00,VWS V14.01,2013-10-06 22:22:00,
2013-10-06 16:27:00,69.1,22.5,30.20,NW,315,0.0,0.2,17,0.00,,---,0.00,VWS V14.01,2013-10-06 22:27:00,
2013-10-06 16:32:00,68.4,20.5,30.20,East,90,1.8,3.1,16,0.00,,---,0.00,VWS V14.01,2013-10-06 22:32:00,
2013-10-06 16:37:00,68.8,22.2,30.20,NNW,338,1.1,1.6,17,0.00,,---,0.00,VWS V14.01,2013-10-06 22:37:00,
2013-10-06 16:42:00,69.3,22.6,30.20,West,270,1.1,1.1,17,0.00,,---,0.00,VWS V14.01,2013-10-06 22:42:00,
2013-10-06 16:47:00,69.1,22.5,30.20,West,270,1.8,2.2,17,0.00,,---,0.00,VWS V14.01,2013-10-06 22:47:00,
2013-10-06 16:52:00,68.8,22.2,30.20,West,270,0.7,1.8,17,0.00,,---,0.00,VWS V14.01,2013-10-06 22:52:00,
2013-10-06 16:57:00,68.4,21.9,30.20,NNE,22,1.1,1.1,17,0.00,,---,0.00,VWS V14.01,2013-10-06 22:57:00,
2013-10-06 17:02:00,69.1,22.5,30.20,WSW,248,1.1,1.1,17,0.00,,---,0.00,VWS V14.01,2013-10-06 23:02:00,
2013-10-06 17:07:00,69.7,23.0,30.20,West,270,1.8,1.8,17,0.00,,---,0.00,VWS V14.01,2013-10-06 23:07:00,
2013-10-06 17:12:00,69.7,23.0,30.20,WSW,248,0.7,0.7,17,0.00,,---,0.00,VWS V14.01,2013-10-06 23:12:00,
2013-10-06 17:17:00,71.1,24.1,30.20,WSW,248,0.4,0.4,17,0.00,,---,0.00,VWS V14.01,2013-10-06 23:17:00,
2013-10-06 17:22:00,72.7,24.0,30.20,West,270,1.3,1.3,16,0.00,,---,0.00,VWS V14.01,2013-10-06 23:22:00,
2013-10-06 17:27:00,72.7,24.0,30.20,West,270,1.8,1.8,16,0.00,,---,0.00,VWS V14.01,2013-10-06 23:27:00,
2013-10-06 17:32:00,72.2,23.5,30.20,WSW,248,0.7,0.7,16,0.00,,---,0.00,VWS V14.01,2013-10-06 23:32:00,
2013-10-06 17:37:00,70.7,22.3,30.20,West,270,1.1,1.8,16,0.00,,---,0.00,VWS V14.01,2013-10-06 23:37:00,
2013-10-06 17:42:00,69.8,23.1,30.20,West,270,0.4,1.1,17,0.00,,---,0.00,VWS V14.01,2013-10-06 23:42:00,
2013-10-06 17:47:00,69.1,23.9,30.20,WSW,248,0.4,0.7,18,0.00,,---,0.00,VWS V14.01,2013-10-06 23:47:00,
2013-10-06 17:52:00,68.6,23.4,30.20,West,270,3.1,3.1,18,0.00,,---,0.00,VWS V14.01,2013-10-06 23:52:00,
2013-10-06 17:57:00,68.2,23.1,30.20,SW,225,0.4,0.4,18,0.00,,---,0.00,VWS V14.01,2013-10-06 23:57:00,
2013-10-06 18:02:00,68.0,23.0,30.20,WSW,248,1.1,1.1,18,0.00,,---,0.00,VWS V14.01,2013-10-07 00:02:00,
2013-10-06 18:07:00,67.9,22.9,30.21,West,270,0.9,2.5,18,0.00,,---,0.00,VWS V14.01,2013-10-07 00:07:00,
2013-10-06 18:12:00,67.5,22.5,30.20,West,270,0.9,1.3,18,0.00,,---,0.00,VWS V14.01,2013-10-07 00:12:00,
2013-10-06 18:17:00,67.3,22.4,30.21,West,270,1.1,1.3,18,0.00,,---,0.00,VWS V14.01,2013-10-07 00:17:00,
2013-10-06 18:22:00,67.1,23.5,30.21,West,270,0.7,1.1,19,0.00,,---,0.00,VWS V14.01,2013-10-07 00:22:00,
2013-10-06 18:27:00,66.6,23.1,30.21,West,270,0.4,1.1,19,0.00,,---,0.00,VWS V14.01,2013-10-07 00:27:00,
2013-10-06 18:32:00,66.2,22.8,30.21,West,270,0.0,0.0,19,0.00,,---,0.00,VWS V14.01,2013-10-07 00:32:00,
2013-10-06 18:37:00,65.5,24.6,30.21,West,270,0.0,0.0,21,0.00,,---,0.00,VWS V14.01,2013-10-07 00:37:00,
2013-10-06 18:42:00,64.8,24.0,30.21,West,270,0.0,0.0,21,0.00,,---,0.00,VWS V14.01,2013-10-07 00:42:00,
2013-10-06 18:47:00,64.1,23.4,30.21,West,270,0.0,0.0,21,0.00,,---,0.00,VWS V14.01,2013-10-07 00:47:00,
2013-10-06 18:52:00,63.5,22.9,30.21,West,270,0.0,0.0,21,0.00,,---,0.00,VWS V14.01,2013-10-07 00:52:00,
2013-10-06 18:57:00,62.8,24.5,30.21,West,270,0.0,0.0,23,0.00,,---,0.00,VWS V14.01,2013-10-07 00:57:00,
2013-10-06 19:02:00,62.3,24.1,30.21,West,270,0.0,0.0,23,0.00,,---,0.00,VWS V14.01,2013-10-07 01:02:00,
2013-10-06 19:07:00,61.7,22.5,30.21,WSW,248,0.2,0.2,22,0.00,,---,0.00,VWS V14.01,2013-10-07 01:07:00,
2013-10-06 19:12:00,61.4,22.2,30.21,SW,225,0.2,0.4,22,0.00,,---,0.00,VWS V14.01,2013-10-07 01:12:00,
2013-10-06 19:17:00,61.2,24.1,30.21,SW,225,0.4,0.4,24,0.00,,---,0.00,VWS V14.01,2013-10-07 01:17:00,
2013-10-06 19:22:00,60.5,24.5,30.21,SW,225,0.0,0.0,25,0.00,,---,0.00,VWS V14.01,2013-10-07 01:22:00,
2013-10-06 19:27:00,59.9,23.0,30.21,SW,225,0.0,0.0,24,0.00,,---,0.00,VWS V14.01,2013-10-07 01:27:00,
2013-10-06 19:32:00,59.4,23.6,30.21,SW,225,0.0,0.0,25,0.00,,---,0.00,VWS V14.01,2013-10-07 01:32:00,
2013-10-06 19:37:00,58.9,24.1,30.21,SW,225,0.0,0.4,26,0.00,,---,0.00,VWS V14.01,2013-10-07 01:37:00,
2013-10-06 19:42:00,58.7,25.7,30.22,SSW,202,0.2,0.2,28,0.00,,---,0.00,VWS V14.01,2013-10-07 01:42:00,
2013-10-06 19:47:00,58.3,26.2,30.22,SE,135,1.1,1.1,29,0.00,,---,0.00,VWS V14.01,2013-10-07 01:47:00,
2013-10-06 19:52:00,58.1,26.0,30.22,SE,135,1.1,1.1,29,0.00,,---,0.00,VWS V14.01,2013-10-07 01:52:00,
2013-10-06 19:57:00,58.3,26.2,30.22,SE,135,1.3,1.3,29,0.00,,---,0.00,VWS V14.01,2013-10-07 01:57:00,
2013-10-06 20:02:00,58.1,26.0,30.22,SE,135,1.1,1.1,29,0.00,,---,0.00,VWS V14.01,2013-10-07 02:02:00,
2013-10-06 20:07:00,57.8,26.6,30.22,SE,135,0.9,0.9,30,0.00,,---,0.00,VWS V14.01,2013-10-07 02:07:00,
2013-10-06 20:12:00,57.2,25.2,30.22,SE,135,0.0,0.0,29,0.00,,---,0.00,VWS V14.01,2013-10-07 02:12:00,
2013-10-06 20:17:00,56.9,25.0,30.23,SSE,158,0.0,0.4,29,0.00,,---,0.00,VWS V14.01,2013-10-07 02:17:00,
2013-10-06 20:22:00,56.9,25.0,30.22,SSE,158,0.2,0.2,29,0.00,,---,0.00,VWS V14.01,2013-10-07 02:22:00,
2013-10-06 20:27:00,56.7,24.8,30.23,SSE,158,0.4,0.7,29,0.00,,---,0.00,VWS V14.01,2013-10-07 02:27:00,
2013-10-06 20:32:00,56.7,24.0,30.22,SSE,158,0.4,0.4,28,0.00,,---,0.00,VWS V14.01,2013-10-07 02:32:00,
2013-10-06 20:37:00,56.5,23.8,30.23,SSE,158,0.0,0.0,28,0.00,,---,0.00,VWS V14.01,2013-10-07 02:37:00,
2013-10-06 20:42:00,56.0,24.2,30.23,SSE,158,0.0,0.0,29,0.00,,---,0.00,VWS V14.01,2013-10-07 02:42:00,
2013-10-06 20:47:00,55.4,25.3,30.23,SE,135,0.9,1.1,31,0.00,,---,0.00,VWS V14.01,2013-10-07 02:47:00,
2013-10-06 20:52:00,55.4,24.5,30.23,SE,135,0.7,0.9,30,0.00,,---,0.00,VWS V14.01,2013-10-07 02:52:00,
2013-10-06 20:57:00,55.3,24.4,30.23,SE,135,1.1,1.1,30,0.00,,---,0.00,VWS V14.01,2013-10-07 02:57:00,
2013-10-06 21:02:00,54.9,24.9,30.23,SE,135,1.1,1.1,31,0.00,,---,0.00,VWS V14.01,2013-10-07 03:02:00,
2013-10-06 21:07:00,54.5,23.7,30.23,SE,135,1.1,1.1,30,0.00,,---,0.00,VWS V14.01,2013-10-07 03:07:00,
2013-10-06 21:12:00,54.9,23.3,30.23,SE,135,0.7,1.1,29,0.00,,---,0.00,VWS V14.01,2013-10-07 03:12:00,
2013-10-06 21:17:00,54.9,24.1,30.24,SE,135,1.1,1.1,30,0.00,,---,0.00,VWS V14.01,2013-10-07 03:17:00,
2013-10-06 21:22:00,54.7,24.7,30.24,SE,135,1.8,1.8,31,0.00,,---,0.00,VWS V14.01,2013-10-07 03:22:00,
2013-10-06 21:27:00,54.7,24.7,30.24,SE,135,1.1,1.1,31,0.00,,---,0.00,VWS V14.01,2013-10-07 03:27:00,
2013-10-06 21:32:00,54.7,25.4,30.24,SE,135,1.6,1.6,32,0.00,,---,0.00,VWS V14.01,2013-10-07 03:32:00,
2013-10-06 21:37:00,54.5,25.3,30.23,SE,135,1.3,1.8,32,0.00,,---,0.00,VWS V14.01,2013-10-07 03:37:00,
2013-10-06 21:42:00,54.4,25.2,30.24,SE,135,1.1,1.1,32,0.00,,---,0.00,VWS V14.01,2013-10-07 03:42:00,
2013-10-06 21:47:00,54.0,24.8,30.24,SE,135,1.6,1.6,32,0.00,,---,0.00,VWS V14.01,2013-10-07 03:47:00,
2013-10-06 21:52:00,54.2,25.0,30.24,ESE,112,1.1,1.3,32,0.00,,---,0.00,VWS V14.01,2013-10-07 03:52:00,
2013-10-06 21:57:00,54.4,24.4,30.24,SE,135,1.8,1.8,31,0.00,,---,0.00,VWS V14.01,2013-10-07 03:57:00,
2013-10-06 22:01:00,54.4,24.4,30.24,SE,135,2.5,2.5,31,0.00,,---,0.00,VWS V14.01,2013-10-07 04:01:00,
2013-10-06 22:06:00,54.7,24.7,30.24,SE,135,1.3,1.8,31,0.00,,---,0.00,VWS V14.01,2013-10-07 04:06:00,
2013-10-06 22:11:00,54.7,24.7,30.24,SE,135,1.8,2.5,31,0.00,,---,0.00,VWS V14.01,2013-10-07 04:11:00,
2013-10-06 22:16:00,54.5,25.3,30.24,SE,135,1.6,1.6,32,0.00,,---,0.00,VWS V14.01,2013-10-07 04:16:00,
2013-10-06 22:21:00,54.2,25.0,30.24,SE,135,1.6,1.6,32,0.00,,---,0.00,VWS V14.01,2013-10-07 04:21:00,
2013-10-06 22:26:00,54.0,24.8,30.24,SE,135,1.8,1.8,32,0.00,,---,0.00,VWS V14.01,2013-10-07 04:26:00,
2013-10-06 22:31:00,53.6,24.5,30.24,SE,135,2.0,2.0,32,0.00,,---,0.00,VWS V14.01,2013-10-07 04:31:00,
2013-10-06 22:36:00,53.6,25.2,30.24,SE,135,1.3,1.6,33,0.00,,---,0.00,VWS V14.01,2013-10-07 04:36:00,
2013-10-06 22:41:00,53.5,25.1,30.24,SE,135,1.1,1.6,33,0.00,,---,0.00,VWS V14.01,2013-10-07 04:41:00,
2013-10-06 22:46:00,53.3,25.0,30.24,SE,135,1.3,1.3,33,0.00,,---,0.00,VWS V14.01,2013-10-07 04:46:00,
2013-10-06 22:51:00,53.1,24.8,30.24,SSE,158,0.2,0.2,33,0.00,,---,0.00,VWS V14.01,2013-10-07 04:51:00,
2013-10-06 22:56:00,52.7,24.4,30.24,SE,135,0.2,0.2,33,0.00,,---,0.00,VWS V14.01,2013-10-07 04:56:00,
2013-10-06 23:01:00,52.4,24.2,30.24,SE,135,0.0,0.0,33,0.00,,---,0.00,VWS V14.01,2013-10-07 05:01:00,
2013-10-06 23:06:00,52.2,24.0,30.24,SE,135,0.0,0.0,33,0.00,,---,0.00,VWS V14.01,2013-10-07 05:06:00,
2013-10-06 23:11:00,51.8,25.7,30.24,SE,135,2.0,2.0,36,0.00,,---,0.00,VWS V14.01,2013-10-07 05:11:00,
2013-10-06 23:16:00,51.8,25.7,30.24,SSE,158,2.0,2.0,36,0.00,,---,0.00,VWS V14.01,2013-10-07 05:16:00,
2013-10-06 23:21:00,51.8,24.3,30.24,SE,135,0.0,0.0,34,0.00,,---,0.00,VWS V14.01,2013-10-07 05:21:00,
2013-10-06 23:26:00,51.5,24.8,30.24,SE,135,0.0,0.0,35,0.00,,---,0.00,VWS V14.01,2013-10-07 05:26:00,
2013-10-06 23:31:00,50.9,24.9,30.24,SE,135,0.0,0.0,36,0.00,,---,0.00,VWS V14.01,2013-10-07 05:31:00,
2013-10-06 23:36:00,50.4,24.5,30.23,SE,135,0.0,0.0,36,0.00,,---,0.00,VWS V14.01,2013-10-07 05:36:00,
2013-10-06 23:41:00,50.0,25.4,30.23,SE,135,0.4,0.7,38,0.00,,---,0.00,VWS V14.01,2013-10-07 05:41:00,
2013-10-06 23:46:00,49.7,25.1,30.23,SE,135,0.2,0.2,38,0.00,,---,0.00,VWS V14.01,2013-10-07 05:46:00,
2013-10-06 23:51:00,49.5,25.0,30.23,ENE,68,0.9,0.9,38,0.00,,---,0.00,VWS V14.01,2013-10-07 05:51:00,
2013-10-06 23:56:00,49.5,25.0,30.23,ENE,68,1.1,1.1,38,0.00,,---,0.00,VWS V14.01,2013-10-07 05:56:00,